Home   Weather   Theni   Past weeks
Flag for India

Past Weather in Theni, Tamil Nadu, India — Yesterday and Last 2 Weeks

Now
70 °F

Fog.


Feels Like: 70 °F
Forecast: 84 / 64 °F
Wind: No wind

Location: Coimbatore / Peelamedu

Current Time: Dec 9, 2019 at 8:21:55 am

Latest Report: Dec 9, 2019 at 7:30 am


Visibility: 2 mi

Pressure: 30.04 "Hg

Humidity: 88%

Dew Point: 66 °F

Location of TheniLocation

Past Weather in Theni — Graph

°F

Theni Temperature Yesterday

Maximum temperature yesterday: 82 °F (at 4:00 pm)
Minimum temperature yesterday: 72 °F (at 3:00 am)
Average temperature yesterday: 76 °F

High & Low Weather Summary for the Past Weeks

 TemperatureHumidityPressure
High86 °F (Nov 26, 2:30 pm)100% (Nov 28, 11:00 pm)30.09 "Hg (Nov 28, 11:00 pm)
Low70 °F (Dec 4, 5:30 am)40% (Nov 26, 5:30 pm)29.80 "Hg (Nov 26, 4:00 pm)
Average77 °F78%29.95 "Hg
* Reported Nov 24 6:30 am — Dec 9 7:00 am, Theni. Weather by CustomWeather, © 2019

Note: Actual official high and low records may vary slightly from our data, if they occured in-between our weather recording intervals... More about our weather records

Theni Weather History for the Previous 24 Hours

Scroll right to see more
 ConditionsComfort  
Time TempWeatherWind HumidityBarometerVisibility
7:00 am
Mon, Dec 9
70 °FFog.No wind88%30.01 "Hg2 mi
6:30 am70 °FFog.No wind88%30.01 "Hg2 mi
5:30 am70 °FFog.No wind88%30.01 "Hg2 mi
5:00 am70 °FFog.No wind88%29.98 "Hg2 mi
4:00 am72 °FFog.No wind78%29.98 "Hg2 mi
3:30 am72 °FFog.No wind78%29.98 "Hg2 mi
3:00 am72 °FFog.No wind78%29.98 "Hg2 mi
2:30 am72 °FFog.No wind78%29.98 "Hg2 mi
2:00 am73 °FFog.No wind78%29.98 "Hg2 mi
1:30 am73 °FFog.No wind78%29.98 "Hg2 mi
1:00 am73 °FFog.No wind78%30.01 "Hg2 mi
12:30 am73 °FFog.No wind78%30.01 "Hg2 mi
12:00 am73 °FFog.No wind78%30.01 "Hg2 mi
11:30 pm
Sun, Dec 8
73 °FFog.No wind78%30.04 "Hg2 mi
11:00 pm73 °FFog.No wind78%30.04 "Hg2 mi
10:30 pm73 °FFog.No wind78%30.04 "Hg2 mi
10:00 pm73 °FFog.No wind78%30.04 "Hg2 mi
9:30 pm73 °FFog.No wind78%30.04 "Hg2 mi
9:00 pm75 °FPassing clouds.No wind74%30.04 "Hg3 mi
8:30 pm75 °FPassing clouds.3 mph74%30.04 "Hg3 mi
8:00 pm75 °FPassing clouds.No wind74%30.01 "Hg3 mi
7:30 pm75 °FPassing clouds.No wind74%30.01 "Hg3 mi
7:00 pm77 °FPassing clouds.No wind69%29.98 "Hg3 mi
6:30 pm77 °FPassing clouds.No wind69%29.98 "Hg3 mi
5:30 pm79 °FScattered clouds.5 mph58%29.95 "Hg3 mi
5:00 pm81 °FBroken clouds.6 mph62%29.95 "Hg3 mi
4:30 pm81 °FBroken clouds.10 mph62%29.92 "Hg3 mi
4:00 pm82 °FBroken clouds.9 mph55%29.92 "Hg3 mi
3:30 pm81 °FBroken clouds.9 mph58%29.92 "Hg3 mi
3:00 pm81 °FBroken clouds.3 mph58%29.95 "Hg3 mi
2:30 pm81 °FBroken clouds.6 mph58%29.95 "Hg3 mi
2:00 pm77 °FBroken clouds.9 mph65%29.98 "Hg3 mi
1:30 pm79 °FBroken clouds.8 mph61%29.98 "Hg3 mi
1:00 pm81 °FDrizzle. Broken clouds.8 mph66%30.01 "Hg3 mi
12:30 pm81 °FPartly sunny.6 mph66%30.01 "Hg4 mi
12:00 pm81 °FPartly sunny.8 mph66%30.01 "Hg4 mi
11:30 am81 °FPartly sunny.7 mph62%30.04 "Hg3 mi
11:00 am79 °FPartly sunny.6 mph70%30.04 "Hg3 mi
10:30 am79 °FPartly sunny.7 mph70%30.07 "Hg3 mi
10:00 am79 °FPartly sunny.7 mph70%30.07 "Hg3 mi
9:30 am79 °FScattered clouds.6 mph70%30.07 "Hg3 mi
9:00 am77 °FHaze.5 mph74%30.07 "Hg3 mi
8:30 am75 °FFog.5 mph83%30.04 "Hg2 mi
8:00 am75 °FFog.3 mph83%30.04 "Hg2 mi
Weather by CustomWeather, © 2019

See weather overview

Advertising